sat.trackr.live / text

‹ back to catalog

HAMMER

NORAD 59148 · 2024-043BC

PAYLOAD ACTIVE UNKNOWN

§ Identity

Operator
Country
SPN
Launch date
2024-03-04
Launch site
AFWTR
Launch vehicle
Mass (kg)
RCS (m²)

External: N2YO · Heavens-Above · Gunter

§ Orbital elements

Epoch: 2026-09-22T21:40:38.209728Z

Period
92.44 min
Inclination
97.5512°
Eccentricity
0.0003362
Mean motion
15.57712492 rev/d
Perigee alt
392.0 km
Apogee alt
396.6 km
Semi-major
6,772.4 km
B*
2.7421e-4
RAAN
59.9755°
Arg perigee
206.9513°
Mean anomaly
153.1568°
Rev number
14,299

§ Raw data

HAMMER1 59148U 24043BC  26265.90322002  .00020235  00000+0  27421-3 0  99992 59148  97.5512  59.9755 0003362 206.9513 153.1568 15.57712492142995

JSON: /api/v1/satellites/59148 · /tle

For live sub-satellite position, see the globe view (requires WebGL).

§ Visibility from observer

Set your observer location to see the next 7 days of passes ≥ 10°. The values pass through the URL so the page stays shareable.

No JS? Fill the form by hand. The geolocation button needs JavaScript.

§ Radio — SatNOGS DB

ModeDescriptionDownlinkUplink
FM Mode S 2.263 GHz

1 transmitter · refreshed weekly from db.satnogs.org